SL-16 DEB, 22368

Orbit data source: Space-Track

SL-16 DEB, 22368 is space debris in LEO originally from a launch on Fri, 25 Dec 1992 UTC launched from the Tyuratam Missile And Space Complex (TTMTR). Debris objects in space refer to the collection of defunct objects orbiting the Earth. Examples of debris include non-operational satellites, rocket bodies, and fragments generated from explosions, collisions, or faulty payload assembly.

Loading next visibility...
Identifier
22368, 1992-093BH
Orbit
LEO
Country
Flag of CISCIS
Related business
Manufacturer
Unknown
Mission
Spacecraft
Bus & Motor
Unknown
Mass
Unknown
Launch date (UTC)
1992-12-25 (33 years ago)
Launch vehicle
Unknown
Launch site
Tyuratam Missile And Space Complex (TTMTR)
Object type
Payload
Rocket body
Debris
Shape & HBR
Unknown shape, 0.2 m
Radar Cross Section
Medium (>0.1 m² and <1 m²)

Expand to show TLE details & history
Last TLE update: 19 hours ago

TLE from 19 hours ago
0 SL-16 DEB
1 22368U 92093BH  25349.26614860  .00000519  00000-0  13601-3 0  9999
2 22368  71.2439 285.3250 0113980 203.3100 307.6799 14.50321055715443
Epoch: 2025-12-15T06:23Z
TLE epoch observation values (Epoch: 2025-12-15T06:23:15.239Z)
Latitude
28.36275°
Longitude
-85.16126°
Altitude
678.717 km
Speed
7.546 km/s
True Right ascension
06h 19m 16s
True Declination
28° 13' 03"
Sunlit
Object was in full shadow at epoch
Visualization orbit readout
Latitude
Unknown
Longitude
Unknown
Altitude
Unknown
Speed
Unknown
Apparent Right ascension
Unknown
Apparent Declination
Unknown
Sunlit
N/A
Visualization observer readout
Local Sidereal Time
00:22:57
Azimuth
Unknown
Elevation
Unknown
Doppler factor
Unknown
Orbital elements
Apogee altitude
803.398 km
Perigee altitude
641.533 km
Semi-major axis
7,100.603 km
Eccentricity
0.0114
Inclination
71.2439°
RAAN
285.325°
Arg. of periapsis
203.31°
True anomaly
306.63717°
Mean anomaly
307.6799°
Eccentric anomaly
307.15944°
Mean motion
3.62744 °/min
Orbital period
99.24 mins
BSTAR
0.00013601
Loading maneuver chart data...
Computing Atmospheric mass density...
Loading historical data...
Loading historical data...
Loading historical data...
Loading historical data...
Loading historical data...
Loading historical data...
Loading historical data...

Documentation

Showing up to 5 results
|